Time,TemperatureF,DewpointF,PressureIn,WindDirection,WindDirectionDegrees,WindSpeedMPH,WindSpeedGustMPH,Humidity,HourlyPrecipIn,Conditions,Clouds,dailyrainin,SoftwareType,DateUTC
2013-05-15 00:00:00,64.2,50.0,30.16,SW,233,9.0,13.0,60,0.00,,SKC,0.00,VWS V13.00,2013-05-15 04:00:00,
2013-05-15 00:01:00,64.2,50.0,30.16,SW,224,11.0,13.0,60,0.00,,SKC,0.00,VWS V13.00,2013-05-15 04:01:00,
2013-05-15 00:05:00,64.3,50.1,30.16,WSW,241,8.0,16.0,60,0.00,,SKC,0.00,VWS V13.00,2013-05-15 04:05:00,
2013-05-15 00:06:00,64.2,50.0,30.16,WSW,248,11.0,16.0,60,0.00,,SKC,0.00,VWS V13.00,2013-05-15 04:06:00,
2013-05-15 00:10:00,64.3,50.1,30.16,SW,227,9.0,14.0,60,0.00,,SKC,0.00,VWS V13.00,2013-05-15 04:10:00,
2013-05-15 00:11:00,64.3,50.1,30.16,WSW,244,7.0,14.0,60,0.00,,SKC,0.00,VWS V13.00,2013-05-15 04:11:00,
2013-05-15 00:15:00,64.3,50.1,30.16,West,261,7.0,17.0,60,0.00,,SKC,0.00,VWS V13.00,2013-05-15 04:15:00,
2013-05-15 00:16:00,64.3,50.1,30.16,South,188,7.0,17.0,60,0.00,,SKC,0.00,VWS V13.00,2013-05-15 04:16:00,
2013-05-15 00:20:00,64.4,50.7,30.16,SW,236,5.0,11.0,61,0.00,,SKC,0.00,VWS V13.00,2013-05-15 04:20:00,
2013-05-15 00:21:00,64.4,50.7,30.16,SSW,199,4.0,11.0,61,0.00,,SKC,0.00,VWS V13.00,2013-05-15 04:21:00,
2013-05-15 00:25:00,64.4,50.7,30.16,SW,231,7.0,16.0,61,0.00,,SKC,0.00,VWS V13.00,2013-05-15 04:25:00,
2013-05-15 00:26:00,64.4,50.7,30.16,SW,219,5.0,16.0,61,0.00,,SKC,0.00,VWS V13.00,2013-05-15 04:26:00,
2013-05-15 00:30:00,64.4,50.7,30.16,South,178,9.0,13.0,61,0.00,,SKC,0.00,VWS V13.00,2013-05-15 04:30:00,
2013-05-15 00:31:00,64.4,50.7,30.16,WSW,257,6.0,13.0,61,0.00,,SKC,0.00,VWS V13.00,2013-05-15 04:31:00,
2013-05-15 00:35:00,64.3,50.6,30.16,SSW,196,8.0,12.0,61,0.00,,SKC,0.00,VWS V13.00,2013-05-15 04:35:00,
2013-05-15 00:36:00,64.4,50.7,30.16,SSW,202,11.0,12.0,61,0.00,,SKC,0.00,VWS V13.00,2013-05-15 04:36:00,
2013-05-15 00:40:00,64.4,50.7,30.17,WSW,246,5.0,14.0,61,0.00,,SKC,0.00,VWS V13.00,2013-05-15 04:40:00,
2013-05-15 00:41:00,64.4,50.7,30.17,SW,217,8.0,14.0,61,0.00,,SKC,0.00,VWS V13.00,2013-05-15 04:41:00,
2013-05-15 00:45:00,64.4,51.1,30.17,SW,236,3.0,10.0,62,0.00,,SKC,0.00,VWS V13.00,2013-05-15 04:45:00,
2013-05-15 00:46:00,64.4,51.1,30.17,SW,225,7.0,10.0,62,0.00,,SKC,0.00,VWS V13.00,2013-05-15 04:46:00,
2013-05-15 00:50:00,64.4,51.1,30.16,WSW,242,6.0,12.0,62,0.00,,SKC,0.00,VWS V13.00,2013-05-15 04:50:00,
2013-05-15 00:51:00,64.4,51.1,30.17,WSW,242,6.0,12.0,62,0.00,,SKC,0.00,VWS V13.00,2013-05-15 04:51:00,
2013-05-15 00:55:00,64.3,51.0,30.16,SW,226,9.0,14.0,62,0.00,,SKC,0.00,VWS V13.00,2013-05-15 04:55:00,
2013-05-15 00:56:00,64.4,51.1,30.16,SW,230,3.0,14.0,62,0.00,,SKC,0.00,VWS V13.00,2013-05-15 04:56:00,
2013-05-15 01:00:00,64.4,51.1,30.16,SSW,201,8.0,14.0,62,0.00,,SKC,0.00,VWS V13.00,2013-05-15 05:00:00,
2013-05-15 01:01:00,64.4,51.1,30.16,SSW,211,5.0,14.0,62,0.00,,SKC,0.00,VWS V13.00,2013-05-15 05:01:00,
2013-05-15 01:05:00,64.4,51.1,30.16,SW,223,11.0,13.0,62,0.00,,SKC,0.00,VWS V13.00,2013-05-15 05:05:00,
2013-05-15 01:06:00,64.4,51.1,30.16,SW,235,8.0,10.0,62,0.00,,SKC,0.00,VWS V13.00,2013-05-15 05:06:00,
2013-05-15 01:10:00,64.4,51.5,30.16,SE,134,5.0,11.0,63,0.00,,SKC,0.00,VWS V13.00,2013-05-15 05:10:00,
2013-05-15 01:11:00,64.4,51.5,30.16,SSW,210,7.0,11.0,63,0.00,,SKC,0.00,VWS V13.00,2013-05-15 05:11:00,
2013-05-15 01:15:00,64.4,51.5,30.15,SSW,204,4.0,13.0,63,0.00,,SKC,0.00,VWS V13.00,2013-05-15 05:15:00,
2013-05-15 01:16:00,64.5,51.6,30.16,SW,225,5.0,13.0,63,0.00,,SKC,0.00,VWS V13.00,2013-05-15 05:16:00,
2013-05-15 01:20:00,64.5,51.6,30.15,SW,219,8.0,13.0,63,0.00,,SKC,0.00,VWS V13.00,2013-05-15 05:20:00,
2013-05-15 01:21:00,64.5,51.6,30.15,WSW,239,8.0,13.0,63,0.00,,SKC,0.00,VWS V13.00,2013-05-15 05:21:00,
2013-05-15 01:25:00,64.5,51.6,30.15,South,189,5.0,12.0,63,0.00,,SKC,0.00,VWS V13.00,2013-05-15 05:25:00,
2013-05-15 01:26:00,64.5,51.6,30.15,WSW,250,2.0,12.0,63,0.00,,SKC,0.00,VWS V13.00,2013-05-15 05:26:00,
2013-05-15 01:30:00,64.6,52.2,30.15,WNW,288,5.0,13.0,64,0.00,,SKC,0.00,VWS V13.00,2013-05-15 05:30:00,
2013-05-15 01:31:00,64.6,51.7,30.15,SW,223,5.0,13.0,63,0.00,,SKC,0.00,VWS V13.00,2013-05-15 05:31:00,
2013-05-15 01:35:00,64.6,52.2,30.16,SSW,198,5.0,13.0,64,0.00,,SKC,0.00,VWS V13.00,2013-05-15 05:35:00,
2013-05-15 01:36:00,64.6,52.2,30.15,South,190,4.0,13.0,64,0.00,,SKC,0.00,VWS V13.00,2013-05-15 05:36:00,
2013-05-15 01:40:00,64.6,52.2,30.16,WSW,240,9.0,13.0,64,0.00,,SKC,0.00,VWS V13.00,2013-05-15 05:40:00,
2013-05-15 01:41:00,64.6,52.2,30.16,SSW,205,10.0,12.0,64,0.00,,SKC,0.00,VWS V13.00,2013-05-15 05:41:00,
2013-05-15 01:45:00,64.5,52.1,30.16,SSW,194,9.0,13.0,64,0.00,,SKC,0.00,VWS V13.00,2013-05-15 05:45:00,
2013-05-15 01:46:00,64.5,52.1,30.16,SSW,193,5.0,13.0,64,0.00,,SKC,0.00,VWS V13.00,2013-05-15 05:46:00,
2013-05-15 01:50:00,64.6,52.2,30.16,SW,234,5.0,13.0,64,0.00,,SKC,0.00,VWS V13.00,2013-05-15 05:50:00,
2013-05-15 01:51:00,64.6,52.2,30.16,SW,215,9.0,13.0,64,0.00,,SKC,0.00,VWS V13.00,2013-05-15 05:51:00,
2013-05-15 01:55:00,64.6,52.2,30.16,WSW,237,10.0,12.0,64,0.00,,SKC,0.00,VWS V13.00,2013-05-15 05:55:00,
2013-05-15 01:56:00,64.6,52.2,30.16,WSW,244,9.0,11.0,64,0.00,,SKC,0.00,VWS V13.00,2013-05-15 05:56:00,
2013-05-15 02:00:00,64.7,52.7,30.16,SW,234,7.0,12.0,65,0.00,,SKC,0.00,VWS V13.00,2013-05-15 06:00:00,
2013-05-15 02:01:00,64.7,52.7,30.16,SSW,206,4.0,12.0,65,0.00,,SKC,0.00,VWS V13.00,2013-05-15 06:01:00,
2013-05-15 02:05:00,64.8,52.8,30.16,SW,218,2.0,10.0,65,0.00,,SKC,0.00,VWS V13.00,2013-05-15 06:05:00,
2013-05-15 02:06:00,64.8,52.8,30.16,SSW,209,7.0,10.0,65,0.00,,SKC,0.00,VWS V13.00,2013-05-15 06:06:00,
2013-05-15 02:10:00,64.8,52.8,30.15,SW,233,6.0,11.0,65,0.00,,SKC,0.00,VWS V13.00,2013-05-15 06:10:00,
2013-05-15 02:11:00,64.8,52.8,30.15,WSW,237,8.0,11.0,65,0.00,,SKC,0.00,VWS V13.00,2013-05-15 06:11:00,
2013-05-15 02:15:00,64.8,52.8,30.15,SSE,154,8.0,13.0,65,0.00,,SKC,0.00,VWS V13.00,2013-05-15 06:15:00,
2013-05-15 02:16:00,64.8,52.8,30.15,WSW,243,5.0,13.0,65,0.00,,SKC,0.00,VWS V13.00,2013-05-15 06:16:00,
2013-05-15 02:20:00,64.8,52.8,30.15,SW,227,4.0,11.0,65,0.00,,SKC,0.00,VWS V13.00,2013-05-15 06:20:00,
2013-05-15 02:21:00,64.8,52.8,30.15,South,184,4.0,11.0,65,0.00,,SKC,0.00,VWS V13.00,2013-05-15 06:21:00,
2013-05-15 02:25:00,64.8,53.2,30.15,SSW,212,5.0,12.0,66,0.00,,SKC,0.00,VWS V13.00,2013-05-15 06:25:00,
2013-05-15 02:26:00,64.8,53.2,30.15,SW,224,6.0,12.0,66,0.00,,SKC,0.00,VWS V13.00,2013-05-15 06:26:00,
2013-05-15 02:30:00,64.8,53.2,30.15,SSW,212,3.0,14.0,66,0.00,,SKC,0.00,VWS V13.00,2013-05-15 06:30:00,
2013-05-15 02:31:00,64.8,53.2,30.15,SW,230,6.0,14.0,66,0.00,,SKC,0.00,VWS V13.00,2013-05-15 06:31:00,
2013-05-15 02:35:00,64.8,53.2,30.15,SW,223,9.0,12.0,66,0.00,,SKC,0.00,VWS V13.00,2013-05-15 06:35:00,
2013-05-15 02:36:00,64.8,53.2,30.15,SW,223,6.0,12.0,66,0.00,,SKC,0.00,VWS V13.00,2013-05-15 06:36:00,
2013-05-15 02:40:00,64.8,53.2,30.15,SSW,211,5.0,11.0,66,0.00,,SKC,0.00,VWS V13.00,2013-05-15 06:40:00,
2013-05-15 02:41:00,64.8,53.2,30.15,SSW,211,7.0,11.0,66,0.00,,SKC,0.00,VWS V13.00,2013-05-15 06:41:00,
2013-05-15 02:45:00,64.9,53.3,30.15,SSW,207,5.0,12.0,66,0.00,,SKC,0.00,VWS V13.00,2013-05-15 06:45:00,
2013-05-15 02:46:00,64.9,53.3,30.15,SW,234,7.0,12.0,66,0.00,,SKC,0.00,VWS V13.00,2013-05-15 06:46:00,
2013-05-15 02:50:00,64.9,53.3,30.15,SW,219,3.0,12.0,66,0.00,,SKC,0.00,VWS V13.00,2013-05-15 06:50:00,
2013-05-15 02:51:00,64.9,53.3,30.15,SW,226,7.0,12.0,66,0.00,,SKC,0.00,VWS V13.00,2013-05-15 06:51:00,
2013-05-15 02:55:00,65.0,53.8,30.15,SSW,194,9.0,12.0,67,0.00,,SKC,0.00,VWS V13.00,2013-05-15 06:55:00,
2013-05-15 02:56:00,65.0,53.8,30.15,SSW,193,5.0,12.0,67,0.00,,SKC,0.00,VWS V13.00,2013-05-15 06:56:00,
2013-05-15 03:00:00,65.0,53.8,30.15,SW,215,2.0,10.0,67,0.00,,SKC,0.00,VWS V13.00,2013-05-15 07:00:00,
2013-05-15 03:01:00,65.0,53.8,30.15,SW,219,3.0,10.0,67,0.00,,SKC,0.00,VWS V13.00,2013-05-15 07:01:00,
2013-05-15 03:05:00,65.0,53.8,30.15,SW,234,2.0,10.0,67,0.00,,SKC,0.00,VWS V13.00,2013-05-15 07:05:00,
2013-05-15 03:06:00,65.0,53.8,30.15,SW,215,8.0,10.0,67,0.00,,SKC,0.00,VWS V13.00,2013-05-15 07:06:00,
2013-05-15 03:10:00,65.1,53.9,30.15,SW,215,4.0,10.0,67,0.00,,SKC,0.00,VWS V13.00,2013-05-15 07:10:00,
2013-05-15 03:11:00,65.1,53.9,30.15,SSW,192,5.0,10.0,67,0.00,,SKC,0.00,VWS V13.00,2013-05-15 07:11:00,
2013-05-15 03:15:00,65.1,53.9,30.15,SSW,202,3.0,10.0,67,0.00,,SKC,0.00,VWS V13.00,2013-05-15 07:15:00,
2013-05-15 03:16:00,65.1,53.9,30.15,SSW,194,5.0,10.0,67,0.00,,SKC,0.00,VWS V13.00,2013-05-15 07:16:00,
2013-05-15 03:20:00,65.1,53.9,30.15,SSW,213,5.0,10.0,67,0.00,,SKC,0.00,VWS V13.00,2013-05-15 07:20:00,
2013-05-15 03:21:00,65.1,53.9,30.15,SSW,207,7.0,10.0,67,0.00,,SKC,0.00,VWS V13.00,2013-05-15 07:21:00,
2013-05-15 03:25:00,65.1,53.9,30.15,SSW,202,3.0,8.0,67,0.00,,SKC,0.00,VWS V13.00,2013-05-15 07:25:00,
2013-05-15 03:26:00,65.1,53.9,30.15,WSW,245,4.0,8.0,67,0.00,,SKC,0.00,VWS V13.00,2013-05-15 07:26:00,
2013-05-15 03:30:00,65.0,53.8,30.15,WSW,250,7.0,10.0,67,0.00,,SKC,0.00,VWS V13.00,2013-05-15 07:30:00,
2013-05-15 03:32:00,65.0,53.8,30.15,SW,229,6.0,9.0,67,0.00,,SKC,0.00,VWS V13.00,2013-05-15 07:32:00,
2013-05-15 03:35:00,65.0,54.2,30.15,SW,232,6.0,9.0,68,0.00,,SKC,0.00,VWS V13.00,2013-05-15 07:35:00,
2013-05-15 03:37:00,65.0,54.2,30.15,SW,221,5.0,7.0,68,0.00,,SKC,0.00,VWS V13.00,2013-05-15 07:37:00,
2013-05-15 03:46:00,64.9,54.1,30.15,SSW,211,7.0,7.0,68,0.00,,SKC,0.00,VWS V13.00,2013-05-15 07:46:00,
2013-05-15 03:51:00,64.9,54.1,30.15,WSW,242,8.0,10.0,68,0.00,,SKC,0.00,VWS V13.00,2013-05-15 07:51:00,
2013-05-15 03:56:00,65.0,54.2,30.15,SSW,204,5.0,9.0,68,0.00,,SKC,0.00,VWS V13.00,2013-05-15 07:56:00,
2013-05-15 04:01:00,65.0,54.2,30.15,SSW,208,7.0,10.0,68,0.00,,SKC,0.00,VWS V13.00,2013-05-15 08:01:00,
2013-05-15 04:06:00,65.0,54.2,30.15,SSW,202,3.0,10.0,68,0.00,,SKC,0.00,VWS V13.00,2013-05-15 08:06:00,
2013-05-15 04:11:00,65.0,54.2,30.14,SSW,197,4.0,10.0,68,0.00,,SKC,0.00,VWS V13.00,2013-05-15 08:11:00,
2013-05-15 04:16:00,65.0,54.2,30.14,SW,234,3.0,8.0,68,0.00,,SKC,0.00,VWS V13.00,2013-05-15 08:16:00,
2013-05-15 04:21:00,65.0,54.2,30.14,SSW,192,6.0,9.0,68,0.00,,SKC,0.00,VWS V13.00,2013-05-15 08:21:00,
2013-05-15 04:26:00,65.1,54.7,30.14,South,176,4.0,10.0,69,0.00,,SKC,0.00,VWS V13.00,2013-05-15 08:26:00,
2013-05-15 04:31:00,65.1,54.7,30.14,SSW,213,4.0,14.0,69,0.00,,SKC,0.00,VWS V13.00,2013-05-15 08:31:00,
2013-05-15 04:36:00,65.2,54.8,30.13,SSW,198,9.0,11.0,69,0.00,,SKC,0.00,VWS V13.00,2013-05-15 08:36:00,
2013-05-15 04:41:00,65.2,54.8,30.14,SSW,213,5.0,12.0,69,0.00,,SKC,0.00,VWS V13.00,2013-05-15 08:41:00,
2013-05-15 04:46:00,65.2,54.8,30.14,SSW,213,3.0,10.0,69,0.00,,SKC,0.00,VWS V13.00,2013-05-15 08:46:00,
2013-05-15 04:51:00,65.3,54.9,30.14,SSW,196,9.0,11.0,69,0.00,,SKC,0.00,VWS V13.00,2013-05-15 08:51:00,
2013-05-15 04:56:00,65.3,54.9,30.14,SW,215,10.0,10.0,69,0.00,,SKC,0.00,VWS V13.00,2013-05-15 08:56:00,
2013-05-15 05:01:00,65.3,55.3,30.14,WSW,239,6.0,9.0,70,0.00,,SKC,0.00,VWS V13.00,2013-05-15 09:01:00,
2013-05-15 05:06:00,65.3,55.3,30.14,WSW,253,3.0,9.0,70,0.00,,SKC,0.00,VWS V13.00,2013-05-15 09:06:00,
2013-05-15 05:11:00,65.2,55.2,30.14,WSW,246,4.0,9.0,70,0.00,,SKC,0.00,VWS V13.00,2013-05-15 09:11:00,
2013-05-15 05:16:00,65.2,55.2,30.14,SSW,201,5.0,11.0,70,0.00,,SKC,0.00,VWS V13.00,2013-05-15 09:16:00,
2013-05-15 05:21:00,65.2,55.2,30.14,SW,220,6.0,9.0,70,0.00,,SKC,0.00,VWS V13.00,2013-05-15 09:21:00,
2013-05-15 05:26:00,65.2,55.2,30.14,SW,228,9.0,10.0,70,0.00,,SKC,0.00,VWS V13.00,2013-05-15 09:26:00,
2013-05-15 05:31:00,65.2,55.2,30.14,SW,229,8.0,12.0,70,0.00,,SKC,0.00,VWS V13.00,2013-05-15 09:31:00,
2013-05-15 05:36:00,65.2,55.2,30.14,West,266,7.0,10.0,70,0.00,,SKC,0.00,VWS V13.00,2013-05-15 09:36:00,
2013-05-15 05:41:00,65.1,55.1,30.14,SSW,194,6.0,11.0,70,0.00,,SKC,0.00,VWS V13.00,2013-05-15 09:41:00,
2013-05-15 05:46:00,65.2,55.2,30.14,SSW,207,2.0,8.0,70,0.00,,SKC,0.00,VWS V13.00,2013-05-15 09:46:00,
2013-05-15 05:51:00,65.2,55.2,30.14,SW,215,3.0,11.0,70,0.00,,SKC,0.00,VWS V13.00,2013-05-15 09:51:00,
2013-05-15 05:56:00,65.2,55.2,30.14,WSW,251,8.0,9.0,70,0.00,,SKC,0.00,VWS V13.00,2013-05-15 09:56:00,
2013-05-15 06:01:00,65.2,55.2,30.14,SSW,206,2.0,12.0,70,0.00,,SKC,0.00,VWS V13.00,2013-05-15 10:01:00,
2013-05-15 06:06:00,65.3,55.7,30.14,SSW,198,3.0,10.0,71,0.00,,SKC,0.00,VWS V13.00,2013-05-15 10:06:00,
2013-05-15 06:11:00,65.3,55.7,30.14,SW,215,6.0,12.0,71,0.00,,SKC,0.00,VWS V13.00,2013-05-15 10:11:00,
2013-05-15 06:16:00,65.3,55.7,30.15,SW,217,10.0,10.0,71,0.00,,SKC,0.00,VWS V13.00,2013-05-15 10:16:00,
2013-05-15 06:21:00,65.4,55.8,30.15,SW,233,5.0,11.0,71,0.00,,SKC,0.00,VWS V13.00,2013-05-15 10:21:00,
2013-05-15 06:26:00,65.4,55.8,30.15,SW,216,3.0,13.0,71,0.00,,SKC,0.00,VWS V13.00,2013-05-15 10:26:00,
2013-05-15 06:31:00,65.5,55.9,30.15,WSW,244,4.0,10.0,71,0.00,,SKC,0.00,VWS V13.00,2013-05-15 10:31:00,
2013-05-15 06:36:00,65.6,56.0,30.15,WSW,240,4.0,11.0,71,0.00,,SKC,0.00,VWS V13.00,2013-05-15 10:36:00,
2013-05-15 06:41:00,65.7,56.0,30.15,SSW,205,3.0,10.0,71,0.00,,SKC,0.00,VWS V13.00,2013-05-15 10:41:00,
2013-05-15 06:46:00,65.8,56.2,30.15,WSW,237,5.0,12.0,71,0.00,,SKC,0.00,VWS V13.00,2013-05-15 10:46:00,
2013-05-15 06:51:00,65.9,56.6,30.15,SSW,206,6.0,10.0,72,0.00,,SKC,0.00,VWS V13.00,2013-05-15 10:51:00,
2013-05-15 06:56:00,66.0,56.7,30.15,SSW,212,5.0,13.0,72,0.00,,SKC,0.00,VWS V13.00,2013-05-15 10:56:00,
2013-05-15 07:01:00,66.0,56.7,30.15,SSW,205,5.0,9.0,72,0.00,,SKC,0.00,VWS V13.00,2013-05-15 11:01:00,
2013-05-15 07:06:00,66.1,56.8,30.15,SW,221,3.0,11.0,72,0.00,,SKC,0.00,VWS V13.00,2013-05-15 11:06:00,
2013-05-15 07:11:00,66.2,56.9,30.15,SW,227,4.0,12.0,72,0.00,,SKC,0.00,VWS V13.00,2013-05-15 11:11:00,
2013-05-15 07:16:00,66.3,57.0,30.15,SW,230,7.0,12.0,72,0.00,,SKC,0.00,VWS V13.00,2013-05-15 11:16:00,
2013-05-15 07:22:00,66.3,57.0,30.15,WSW,244,7.0,8.0,72,0.00,,SKC,0.00,VWS V13.00,2013-05-15 11:22:00,
2013-05-15 07:26:00,66.3,57.0,30.15,SW,228,9.0,13.0,72,0.00,,SKC,0.00,VWS V13.00,2013-05-15 11:26:00,
2013-05-15 07:31:00,66.3,57.0,30.15,SSW,213,5.0,11.0,72,0.00,,SKC,0.00,VWS V13.00,2013-05-15 11:31:00,
2013-05-15 07:36:00,66.3,57.0,30.15,SW,217,6.0,13.0,72,0.00,,SKC,0.00,VWS V13.00,2013-05-15 11:36:00,
2013-05-15 07:41:00,66.5,57.2,30.15,SW,228,10.0,13.0,72,0.00,,SKC,0.00,VWS V13.00,2013-05-15 11:41:00,
2013-05-15 07:46:00,66.6,57.3,30.15,SW,222,8.0,14.0,72,0.00,,SKC,0.00,VWS V13.00,2013-05-15 11:46:00,
2013-05-15 07:51:00,66.8,57.5,30.15,West,268,4.0,16.0,72,0.00,,SKC,0.00,VWS V13.00,2013-05-15 11:51:00,
2013-05-15 07:57:00,66.9,57.6,30.14,SSW,207,5.0,10.0,72,0.00,,SKC,0.00,VWS V13.00,2013-05-15 11:57:00,
2013-05-15 08:03:00,67.1,57.8,30.14,SSW,204,7.0,12.0,72,0.00,,SKC,0.00,VWS V13.00,2013-05-15 12:03:00,
2013-05-15 08:08:00,67.2,57.9,30.14,SW,229,6.0,12.0,72,0.00,,SKC,0.00,VWS V13.00,2013-05-15 12:08:00,
2013-05-15 08:13:00,67.4,58.1,30.14,WSW,244,6.0,12.0,72,0.00,,SKC,0.00,VWS V13.00,2013-05-15 12:13:00,
2013-05-15 08:18:00,67.6,58.3,30.14,SW,228,6.0,13.0,72,0.00,,SKC,0.00,VWS V13.00,2013-05-15 12:18:00,
2013-05-15 08:24:00,67.8,58.5,30.14,WSW,239,5.0,12.0,72,0.00,,SKC,0.00,VWS V13.00,2013-05-15 12:24:00,
2013-05-15 08:30:00,68.0,58.7,30.14,WSW,244,3.0,16.0,72,0.00,,SKC,0.00,VWS V13.00,2013-05-15 12:30:00,
2013-05-15 08:35:00,68.2,58.8,30.14,SW,215,9.0,11.0,72,0.00,,SKC,0.00,VWS V13.00,2013-05-15 12:35:00,
2013-05-15 08:40:00,68.3,58.9,30.14,SW,231,4.0,13.0,72,0.00,,SKC,0.00,VWS V13.00,2013-05-15 12:40:00,
2013-05-15 08:45:00,68.4,59.0,30.14,SW,229,11.0,14.0,72,0.00,,SKC,0.00,VWS V13.00,2013-05-15 12:45:00,
2013-05-15 08:51:00,68.6,59.2,30.14,SW,224,8.0,12.0,72,0.00,,SKC,0.00,VWS V13.00,2013-05-15 12:51:00,
2013-05-15 08:56:00,68.8,59.4,30.14,SSW,204,4.0,12.0,72,0.00,,SKC,0.00,VWS V13.00,2013-05-15 12:56:00,
2013-05-15 09:01:00,69.0,59.6,30.14,SSW,205,6.0,16.0,72,0.00,,SKC,0.00,VWS V13.00,2013-05-15 13:01:00,
2013-05-15 09:06:00,69.3,59.9,30.14,WSW,240,10.0,12.0,72,0.00,,SKC,0.00,VWS V13.00,2013-05-15 13:06:00,
2013-05-15 09:11:00,69.5,60.1,30.13,SSE,152,5.0,16.0,72,0.00,,SKC,0.00,VWS V13.00,2013-05-15 13:11:00,
2013-05-15 09:16:00,69.6,60.2,30.13,SW,234,6.0,15.0,72,0.00,,SKC,0.00,VWS V13.00,2013-05-15 13:16:00,
2013-05-15 09:21:00,69.8,60.4,30.13,SW,219,7.0,14.0,72,0.00,,SKC,0.00,VWS V13.00,2013-05-15 13:21:00,
2013-05-15 09:26:00,69.9,60.5,30.13,SSW,211,11.0,14.0,72,0.00,,SKC,0.00,VWS V13.00,2013-05-15 13:26:00,
2013-05-15 09:31:00,69.9,60.5,30.13,South,182,5.0,17.0,72,0.00,,SKC,0.00,VWS V13.00,2013-05-15 13:31:00,
2013-05-15 09:37:00,70.0,60.2,30.13,SW,223,11.0,17.0,71,0.00,,SKC,0.00,VWS V13.00,2013-05-15 13:37:00,
2013-05-15 09:42:00,70.1,60.3,30.13,SSW,200,8.0,11.0,71,0.00,,SKC,0.00,VWS V13.00,2013-05-15 13:42:00,
2013-05-15 09:47:00,70.3,60.9,30.13,South,184,10.0,10.0,72,0.00,,SKC,0.00,VWS V13.00,2013-05-15 13:47:00,
2013-05-15 09:52:00,70.5,60.7,30.13,SW,227,7.0,16.0,71,0.00,,SKC,0.00,VWS V13.00,2013-05-15 13:52:00,
2013-05-15 09:57:00,70.6,60.8,30.12,SW,223,11.0,11.0,71,0.00,,SKC,0.00,VWS V13.00,2013-05-15 13:57:00,
2013-05-15 10:02:00,70.8,60.9,30.12,SSW,209,11.0,12.0,71,0.00,,SKC,0.00,VWS V13.00,2013-05-15 14:02:00,
2013-05-15 10:08:00,70.9,61.0,30.12,SSW,213,6.0,11.0,71,0.00,,SKC,0.00,VWS V13.00,2013-05-15 14:08:00,
2013-05-15 10:13:00,71.0,61.1,30.12,SW,225,6.0,13.0,71,0.00,,SKC,0.00,VWS V13.00,2013-05-15 14:13:00,
2013-05-15 10:18:00,71.2,61.3,30.12,SW,219,6.0,16.0,71,0.00,,SKC,0.00,VWS V13.00,2013-05-15 14:18:00,
2013-05-15 10:23:00,71.3,61.4,30.12,SW,234,14.0,14.0,71,0.00,,SKC,0.00,VWS V13.00,2013-05-15 14:23:00,
2013-05-15 10:28:00,71.3,61.4,30.12,SW,223,11.0,11.0,71,0.00,,SKC,0.00,VWS V13.00,2013-05-15 14:28:00,
2013-05-15 10:33:00,71.4,61.5,30.12,SW,219,15.0,17.0,71,0.00,,SKC,0.00,VWS V13.00,2013-05-15 14:33:00,
2013-05-15 10:38:00,71.5,61.6,30.12,SW,233,5.0,12.0,71,0.00,,SKC,0.00,VWS V13.00,2013-05-15 14:38:00,
2013-05-15 10:43:00,71.6,61.7,30.12,SW,232,11.0,14.0,71,0.00,,SKC,0.00,VWS V13.00,2013-05-15 14:43:00,
2013-05-15 10:48:00,71.8,61.5,30.12,South,173,8.0,12.0,70,0.00,,SKC,0.00,VWS V13.00,2013-05-15 14:48:00,
2013-05-15 10:53:00,72.0,61.7,30.11,South,182,6.0,13.0,70,0.00,,SKC,0.00,VWS V13.00,2013-05-15 14:53:00,
2013-05-15 10:58:00,72.1,61.8,30.11,WSW,241,8.0,17.0,70,0.00,,SKC,0.00,VWS V13.00,2013-05-15 14:58:00,
2013-05-15 11:05:00,72.1,61.8,30.11,SSW,209,12.0,18.0,70,0.00,,SKC,0.00,VWS V13.00,2013-05-15 15:05:00,
2013-05-15 11:10:00,72.3,62.0,30.11,SW,234,5.0,18.0,70,0.00,,SKC,0.00,VWS V13.00,2013-05-15 15:10:00,
2013-05-15 11:15:00,72.3,62.0,30.10,SW,229,11.0,19.0,70,0.00,,SKC,0.00,VWS V13.00,2013-05-15 15:15:00,
2013-05-15 11:20:00,72.2,61.9,30.10,SW,234,9.0,16.0,70,0.00,,SKC,0.00,VWS V13.00,2013-05-15 15:20:00,
2013-05-15 11:25:00,72.2,61.9,30.10,SW,220,5.0,18.0,70,0.00,,SKC,0.00,VWS V13.00,2013-05-15 15:25:00,
2013-05-15 11:30:00,72.2,61.9,30.10,SSW,209,13.0,17.0,70,0.00,,SKC,0.00,VWS V13.00,2013-05-15 15:30:00,
2013-05-15 11:35:00,72.4,62.1,30.10,WSW,253,5.0,17.0,70,0.00,,SKC,0.00,VWS V13.00,2013-05-15 15:35:00,
2013-05-15 11:40:00,72.5,62.2,30.09,SW,221,13.0,19.0,70,0.00,,SKC,0.00,VWS V13.00,2013-05-15 15:40:00,
2013-05-15 11:45:00,72.6,62.3,30.09,SSE,168,7.0,15.0,70,0.00,,SKC,0.00,VWS V13.00,2013-05-15 15:45:00,
2013-05-15 11:51:00,72.7,62.4,30.09,SW,231,7.0,19.0,70,0.00,,SKC,0.00,VWS V13.00,2013-05-15 15:51:00,
2013-05-15 11:56:00,72.9,62.5,30.09,SSE,166,4.0,17.0,70,0.00,,SKC,0.00,VWS V13.00,2013-05-15 15:56:00,
2013-05-15 12:01:00,72.9,62.5,30.09,SW,221,11.0,16.0,70,0.00,,SKC,0.00,VWS V13.00,2013-05-15 16:01:00,
2013-05-15 12:06:00,72.8,62.5,30.09,SW,235,4.0,19.0,70,0.00,,SKC,0.00,VWS V13.00,2013-05-15 16:06:00,
2013-05-15 12:11:00,72.9,62.5,30.09,WSW,237,10.0,19.0,70,0.00,,SKC,0.00,VWS V13.00,2013-05-15 16:11:00,
2013-05-15 12:17:00,72.9,62.5,30.09,SW,215,11.0,20.0,70,0.00,,SKC,0.00,VWS V13.00,2013-05-15 16:17:00,
2013-05-15 12:21:00,73.0,62.7,30.09,WSW,254,12.0,17.0,70,0.00,,SKC,0.00,VWS V13.00,2013-05-15 16:21:00,
2013-05-15 12:27:00,73.0,62.7,30.09,WSW,240,12.0,17.0,70,0.00,,SKC,0.00,VWS V13.00,2013-05-15 16:27:00,
2013-05-15 12:31:00,73.0,62.7,30.09,SSW,202,14.0,19.0,70,0.00,,SKC,0.00,VWS V13.00,2013-05-15 16:31:00,
2013-05-15 12:37:00,73.1,62.7,30.09,SW,219,7.0,18.0,70,0.00,,SKC,0.00,VWS V13.00,2013-05-15 16:37:00,
2013-05-15 12:41:00,73.2,62.8,30.08,WSW,245,9.0,21.0,70,0.00,,SKC,0.00,VWS V13.00,2013-05-15 16:41:00,
2013-05-15 12:46:00,73.3,62.9,30.08,SW,217,14.0,18.0,70,0.00,,SKC,0.00,VWS V13.00,2013-05-15 16:46:00,
2013-05-15 12:52:00,73.4,63.0,30.08,SW,221,14.0,18.0,70,0.00,,SKC,0.00,VWS V13.00,2013-05-15 16:52:00,
2013-05-15 12:57:00,73.3,62.9,30.08,SSW,208,12.0,14.0,70,0.00,,SKC,0.00,VWS V13.00,2013-05-15 16:57:00,
2013-05-15 13:02:00,73.3,62.9,30.08,SSE,161,5.0,9.0,70,0.00,,SKC,0.00,VWS V13.00,2013-05-15 17:02:00,
2013-05-15 13:07:00,73.3,62.9,30.08,South,175,9.0,12.0,70,0.00,,SKC,0.00,VWS V13.00,2013-05-15 17:07:00,
2013-05-15 13:13:00,73.4,63.0,30.08,SW,223,15.0,18.0,70,0.00,,SKC,0.00,VWS V13.00,2013-05-15 17:13:00,
2013-05-15 13:18:00,73.4,63.0,30.08,South,191,6.0,18.0,70,0.00,,SKC,0.00,VWS V13.00,2013-05-15 17:18:00,
2013-05-15 13:23:00,73.5,63.1,30.07,SW,225,3.0,12.0,70,0.00,,SKC,0.00,VWS V13.00,2013-05-15 17:23:00,
2013-05-15 13:28:00,73.5,63.1,30.07,SSW,205,2.0,14.0,70,0.00,,SKC,0.00,VWS V13.00,2013-05-15 17:28:00,
2013-05-15 13:33:00,73.6,63.2,30.07,SSW,209,2.0,15.0,70,0.00,,SKC,0.00,VWS V13.00,2013-05-15 17:33:00,
2013-05-15 13:38:00,73.7,62.9,30.07,WSW,237,12.0,18.0,69,0.00,,SKC,0.00,VWS V13.00,2013-05-15 17:38:00,
2013-05-15 13:44:00,73.6,62.8,30.06,SSW,211,7.0,14.0,69,0.00,,SKC,0.00,VWS V13.00,2013-05-15 17:44:00,
2013-05-15 13:49:00,73.6,62.8,30.07,West,269,7.0,17.0,69,0.00,,SKC,0.00,VWS V13.00,2013-05-15 17:49:00,
2013-05-15 13:54:00,73.6,62.8,30.06,SSE,166,12.0,20.0,69,0.00,,SKC,0.00,VWS V13.00,2013-05-15 17:54:00,
2013-05-15 13:59:00,73.5,62.7,30.06,SSE,165,9.0,18.0,69,0.00,,SKC,0.00,VWS V13.00,2013-05-15 17:59:00,
2013-05-15 14:04:00,73.5,63.1,30.06,South,182,6.0,21.0,70,0.00,,SKC,0.00,VWS V13.00,2013-05-15 18:04:00,
2013-05-15 14:09:00,73.5,62.7,30.06,SW,223,10.0,17.0,69,0.00,,SKC,0.00,VWS V13.00,2013-05-15 18:09:00,
2013-05-15 14:15:00,73.5,62.7,30.05,SW,232,4.0,17.0,69,0.00,,SKC,0.00,VWS V13.00,2013-05-15 18:15:00,
2013-05-15 14:20:00,73.7,62.9,30.06,SW,223,5.0,22.0,69,0.00,,SKC,0.00,VWS V13.00,2013-05-15 18:20:00,
2013-05-15 14:25:00,73.6,62.8,30.05,SW,222,15.0,20.0,69,0.00,,SKC,0.00,VWS V13.00,2013-05-15 18:25:00,
2013-05-15 14:31:00,73.5,62.7,30.05,South,185,10.0,22.0,69,0.00,,SKC,0.00,VWS V13.00,2013-05-15 18:31:00,
2013-05-15 14:36:00,73.4,62.6,30.05,South,190,14.0,22.0,69,0.00,,SKC,0.00,VWS V13.00,2013-05-15 18:36:00,
2013-05-15 14:42:00,73.4,62.6,30.05,SSW,205,13.0,13.0,69,0.00,,SKC,0.00,VWS V13.00,2013-05-15 18:42:00,
2013-05-15 14:47:00,73.3,62.5,30.05,SW,227,10.0,16.0,69,0.00,,SKC,0.00,VWS V13.00,2013-05-15 18:47:00,
2013-05-15 14:52:00,73.4,62.6,30.04,SSW,200,11.0,16.0,69,0.00,,SKC,0.00,VWS V13.00,2013-05-15 18:52:00,
2013-05-15 14:57:00,73.3,62.5,30.04,SSW,202,4.0,17.0,69,0.00,,SKC,0.00,VWS V13.00,2013-05-15 18:57:00,
2013-05-15 15:02:00,73.3,62.5,30.04,West,271,7.0,13.0,69,0.00,,SKC,0.00,VWS V13.00,2013-05-15 19:02:00,
2013-05-15 15:07:00,73.4,62.6,30.04,SW,223,10.0,19.0,69,0.00,,SKC,0.00,VWS V13.00,2013-05-15 19:07:00,
2013-05-15 15:12:00,73.4,62.6,30.04,SSW,206,11.0,17.0,69,0.00,,SKC,0.00,VWS V13.00,2013-05-15 19:12:00,
2013-05-15 15:18:00,73.4,62.6,30.04,SSW,204,5.0,15.0,69,0.00,,SKC,0.00,VWS V13.00,2013-05-15 19:18:00,
2013-05-15 15:23:00,73.4,62.6,30.03,SW,234,7.0,16.0,69,0.00,,SKC,0.00,VWS V13.00,2013-05-15 19:23:00,
2013-05-15 15:28:00,73.4,62.6,30.03,SW,217,20.0,20.0,69,0.00,,SKC,0.00,VWS V13.00,2013-05-15 19:28:00,
2013-05-15 15:34:00,73.3,62.5,30.02,SW,214,8.0,19.0,69,0.00,,SKC,0.00,VWS V13.00,2013-05-15 19:34:00,
2013-05-15 15:39:00,73.3,62.5,30.02,SSW,192,6.0,22.0,69,0.00,,SKC,0.00,VWS V13.00,2013-05-15 19:39:00,
2013-05-15 15:45:00,73.2,62.4,30.02,SW,228,17.0,20.0,69,0.00,,SKC,0.00,VWS V13.00,2013-05-15 19:45:00,
2013-05-15 15:50:00,73.2,62.4,30.02,SSW,205,16.0,21.0,69,0.00,,SKC,0.00,VWS V13.00,2013-05-15 19:50:00,
2013-05-15 15:55:00,73.3,62.9,30.02,SSW,204,8.0,15.0,70,0.00,,SKC,0.00,VWS V13.00,2013-05-15 19:55:00,
2013-05-15 16:01:00,73.2,62.4,30.01,SSW,211,14.0,19.0,69,0.00,,SKC,0.00,VWS V13.00,2013-05-15 20:01:00,
2013-05-15 16:06:00,73.1,62.7,30.01,SSW,203,6.0,23.0,70,0.00,,SKC,0.00,VWS V13.00,2013-05-15 20:06:00,
2013-05-15 16:11:00,73.0,62.7,30.01,SW,217,10.0,20.0,70,0.00,,SKC,0.00,VWS V13.00,2013-05-15 20:11:00,
2013-05-15 16:17:00,73.0,62.7,30.01,South,189,9.0,21.0,70,0.00,,SKC,0.00,VWS V13.00,2013-05-15 20:17:00,
2013-05-15 16:22:00,73.0,62.7,30.01,SW,232,9.0,22.0,70,0.00,,SKC,0.00,VWS V13.00,2013-05-15 20:22:00,
2013-05-15 16:27:00,72.9,62.5,30.01,SSW,209,4.0,22.0,70,0.00,,SKC,0.00,VWS V13.00,2013-05-15 20:27:00,
2013-05-15 16:32:00,72.9,62.5,30.01,SW,221,15.0,18.0,70,0.00,,SKC,0.00,VWS V13.00,2013-05-15 20:32:00,
2013-05-15 16:37:00,72.8,62.5,30.01,WSW,245,11.0,17.0,70,0.00,,SKC,0.00,VWS V13.00,2013-05-15 20:37:00,
2013-05-15 16:42:00,72.7,62.4,30.01,SW,229,6.0,18.0,70,0.00,,SKC,0.00,VWS V13.00,2013-05-15 20:42:00,
2013-05-15 16:46:00,72.7,62.4,30.01,SSW,197,8.0,18.0,70,0.00,,SKC,0.00,VWS V13.00,2013-05-15 20:46:00,
2013-05-15 16:52:00,72.6,62.3,30.00,SW,228,13.0,22.0,70,0.00,,SKC,0.00,VWS V13.00,2013-05-15 20:52:00,
2013-05-15 16:57:00,72.6,62.3,30.00,SSW,193,10.0,24.0,70,0.00,,SKC,0.00,VWS V13.00,2013-05-15 20:57:00,
2013-05-15 17:01:00,72.6,62.3,30.01,SW,227,15.0,21.0,70,0.00,,SKC,0.00,VWS V13.00,2013-05-15 21:01:00,
2013-05-15 17:07:00,72.5,62.2,30.00,SSE,153,15.0,21.0,70,0.00,,SKC,0.00,VWS V13.00,2013-05-15 21:07:00,
2013-05-15 17:12:00,72.5,62.2,30.00,SW,225,15.0,20.0,70,0.00,,SKC,0.00,VWS V13.00,2013-05-15 21:12:00,
2013-05-15 17:18:00,72.4,62.5,30.00,SW,220,15.0,19.0,71,0.00,,SKC,0.00,VWS V13.00,2013-05-15 21:18:00,
2013-05-15 17:23:00,72.3,62.4,30.00,SW,223,17.0,17.0,71,0.00,,SKC,0.00,VWS V13.00,2013-05-15 21:23:00,
2013-05-15 17:28:00,72.2,62.3,30.00,SSW,213,7.0,14.0,71,0.00,,SKC,0.00,VWS V13.00,2013-05-15 21:28:00,
2013-05-15 17:33:00,72.1,62.2,30.00,SW,233,13.0,20.0,71,0.00,,SKC,0.00,VWS V13.00,2013-05-15 21:33:00,
2013-05-15 17:38:00,72.0,62.1,30.00,South,171,10.0,17.0,71,0.00,,SKC,0.00,VWS V13.00,2013-05-15 21:38:00,
2013-05-15 17:43:00,71.9,62.0,29.99,SW,219,6.0,17.0,71,0.00,,SKC,0.00,VWS V13.00,2013-05-15 21:43:00,
2013-05-15 17:49:00,71.6,61.7,29.99,SSW,213,10.0,14.0,71,0.00,,SKC,0.00,VWS V13.00,2013-05-15 21:49:00,
2013-05-15 17:54:00,71.4,61.5,29.99,South,176,7.0,18.0,71,0.00,,SKC,0.00,VWS V13.00,2013-05-15 21:54:00,
2013-05-15 17:59:00,71.3,61.4,29.99,West,269,11.0,17.0,71,0.00,,SKC,0.00,VWS V13.00,2013-05-15 21:59:00,
2013-05-15 18:04:00,71.1,61.2,29.99,SW,217,18.0,18.0,71,0.00,,SKC,0.00,VWS V13.00,2013-05-15 22:04:00,
2013-05-15 18:09:00,71.0,61.1,29.99,WSW,238,15.0,17.0,71,0.00,,SKC,0.00,VWS V13.00,2013-05-15 22:09:00,
2013-05-15 18:14:00,70.9,61.4,29.99,SSW,196,6.0,18.0,72,0.00,,SKC,0.00,VWS V13.00,2013-05-15 22:14:00,
2013-05-15 18:20:00,70.7,61.2,29.98,SW,217,9.0,19.0,72,0.00,,SKC,0.00,VWS V13.00,2013-05-15 22:20:00,
2013-05-15 18:25:00,70.6,61.1,29.98,SW,226,10.0,20.0,72,0.00,,SKC,0.00,VWS V13.00,2013-05-15 22:25:00,
2013-05-15 18:31:00,70.5,61.0,29.98,SW,236,12.0,21.0,72,0.00,,SKC,0.00,VWS V13.00,2013-05-15 22:31:00,
2013-05-15 18:36:00,70.4,61.0,29.98,SW,217,13.0,24.0,72,0.00,,SKC,0.00,VWS V13.00,2013-05-15 22:36:00,
2013-05-15 18:41:00,70.3,60.9,29.98,SW,214,11.0,21.0,72,0.00,,SKC,0.00,VWS V13.00,2013-05-15 22:41:00,
2013-05-15 18:46:00,70.2,60.8,29.98,SW,235,11.0,22.0,72,0.00,,SKC,0.00,VWS V13.00,2013-05-15 22:46:00,
2013-05-15 18:52:00,70.1,60.7,29.99,SSW,210,20.0,21.0,72,0.00,,SKC,0.00,VWS V13.00,2013-05-15 22:52:00,
2013-05-15 18:57:00,70.1,60.7,29.98,South,188,9.0,21.0,72,0.00,,SKC,0.00,VWS V13.00,2013-05-15 22:57:00,
2013-05-15 19:02:00,70.0,60.6,29.98,SSW,210,7.0,20.0,72,0.00,,SKC,0.00,VWS V13.00,2013-05-15 23:02:00,
2013-05-15 19:07:00,69.9,60.5,29.98,SW,218,11.0,11.0,72,0.00,,SKC,0.00,VWS V13.00,2013-05-15 23:07:00,
2013-05-15 19:12:00,69.9,60.5,29.98,SW,226,5.0,5.0,72,0.00,,SKC,0.00,VWS V13.00,2013-05-15 23:12:00,
2013-05-15 19:17:00,69.8,60.8,29.99,SSW,213,9.0,9.0,73,0.00,,SKC,0.00,VWS V13.00,2013-05-15 23:17:00,
2013-05-15 19:22:00,69.7,60.7,29.99,SSW,208,12.0,13.0,73,0.00,,SKC,0.00,VWS V13.00,2013-05-15 23:22:00,
2013-05-15 19:27:00,69.6,60.6,29.99,South,176,16.0,16.0,73,0.00,,SKC,0.00,VWS V13.00,2013-05-15 23:27:00,
2013-05-15 19:32:00,69.5,60.5,29.99,SW,219,12.0,13.0,73,0.00,,SKC,0.00,VWS V13.00,2013-05-15 23:32:00,
2013-05-15 19:37:00,69.4,60.4,29.98,West,266,8.0,17.0,73,0.00,,SKC,0.00,VWS V13.00,2013-05-15 23:37:00,
2013-05-15 19:43:00,69.4,60.4,29.99,SW,222,8.0,15.0,73,0.00,,SKC,0.00,VWS V13.00,2013-05-15 23:43:00,
2013-05-15 19:48:00,69.3,60.3,29.99,South,183,5.0,16.0,73,0.00,,SKC,0.00,VWS V13.00,2013-05-15 23:48:00,
2013-05-15 19:53:00,69.2,60.2,29.99,SW,232,10.0,15.0,73,0.00,,SKC,0.00,VWS V13.00,2013-05-15 23:53:00,
2013-05-15 19:58:00,69.1,60.1,29.98,SW,223,7.0,14.0,73,0.00,,SKC,0.00,VWS V13.00,2013-05-15 23:58:00,
2013-05-15 20:04:00,69.0,60.0,29.98,South,184,6.0,15.0,73,0.00,,SKC,0.00,VWS V13.00,2013-05-16 00:04:00,
2013-05-15 20:09:00,69.0,60.0,29.99,WSW,240,21.0,22.0,73,0.00,,SKC,0.00,VWS V13.00,2013-05-16 00:09:00,
2013-05-15 20:14:00,68.9,59.9,29.98,SSW,211,6.0,14.0,73,0.00,,SKC,0.00,VWS V13.00,2013-05-16 00:14:00,
2013-05-15 20:19:00,68.9,59.9,29.98,SW,221,8.0,15.0,73,0.00,,SKC,0.00,VWS V13.00,2013-05-16 00:19:00,
2013-05-15 20:24:00,68.8,60.2,29.99,SW,216,7.0,20.0,74,0.00,,SKC,0.00,VWS V13.00,2013-05-16 00:24:00,
2013-05-15 20:29:00,68.8,60.2,29.99,South,184,7.0,17.0,74,0.00,,SKC,0.00,VWS V13.00,2013-05-16 00:29:00,
2013-05-15 20:34:00,68.8,60.2,29.99,South,175,7.0,18.0,74,0.00,,SKC,0.00,VWS V13.00,2013-05-16 00:34:00,
2013-05-15 20:39:00,68.8,60.2,29.99,SW,214,6.0,14.0,74,0.00,,SKC,0.00,VWS V13.00,2013-05-16 00:39:00,
2013-05-15 20:44:00,68.8,60.2,29.99,SSW,206,14.0,17.0,74,0.00,,SKC,0.00,VWS V13.00,2013-05-16 00:44:00,
2013-05-15 20:50:00,68.7,60.1,29.99,South,187,10.0,17.0,74,0.00,,SKC,0.00,VWS V13.00,2013-05-16 00:50:00,
2013-05-15 20:55:00,68.8,60.2,29.99,SSW,200,6.0,17.0,74,0.00,,SKC,0.00,VWS V13.00,2013-05-16 00:55:00,
2013-05-15 21:00:00,68.8,60.2,29.99,SW,229,11.0,17.0,74,0.00,,SKC,0.00,VWS V13.00,2013-05-16 01:00:00,
2013-05-15 21:05:00,68.8,60.2,29.99,South,184,8.0,18.0,74,0.00,,SKC,0.00,VWS V13.00,2013-05-16 01:05:00,
2013-05-15 21:10:00,68.7,60.1,30.00,WSW,246,8.0,16.0,74,0.00,,SKC,0.00,VWS V13.00,2013-05-16 01:10:00,
2013-05-15 21:15:00,68.7,60.1,30.00,SSW,206,12.0,15.0,74,0.00,,SKC,0.00,VWS V13.00,2013-05-16 01:15:00,
2013-05-15 21:20:00,68.6,60.0,29.99,SSW,200,6.0,16.0,74,0.00,,SKC,0.00,VWS V13.00,2013-05-16 01:20:00,
2013-05-15 21:26:00,68.6,60.0,30.00,SW,217,12.0,15.0,74,0.00,,SKC,0.00,VWS V13.00,2013-05-16 01:26:00,
2013-05-15 21:31:00,68.6,60.0,30.00,SW,228,3.0,16.0,74,0.00,,SKC,0.00,VWS V13.00,2013-05-16 01:31:00,
2013-05-15 21:36:00,68.6,60.0,30.00,SSW,204,9.0,16.0,74,0.00,,SKC,0.00,VWS V13.00,2013-05-16 01:36:00,
2013-05-15 21:42:00,68.5,59.9,30.00,WSW,248,16.0,17.0,74,0.00,,SKC,0.00,VWS V13.00,2013-05-16 01:42:00,
2013-05-15 21:48:00,68.5,59.9,30.00,SSW,206,13.0,14.0,74,0.00,,SKC,0.00,VWS V13.00,2013-05-16 01:48:00,
2013-05-15 21:53:00,68.5,59.9,30.00,WSW,254,5.0,12.0,74,0.00,,SKC,0.00,VWS V13.00,2013-05-16 01:53:00,
2013-05-15 21:58:00,68.5,60.3,30.00,SW,222,10.0,17.0,75,0.00,,SKC,0.00,VWS V13.00,2013-05-16 01:58:00,
2013-05-15 22:03:00,68.5,60.3,30.00,SW,224,11.0,15.0,75,0.00,,SKC,0.00,VWS V13.00,2013-05-16 02:03:00,
2013-05-15 22:08:00,68.5,60.3,30.00,West,259,10.0,16.0,75,0.00,,SKC,0.00,VWS V13.00,2013-05-16 02:08:00,
2013-05-15 22:13:00,68.5,60.3,30.00,West,261,5.0,13.0,75,0.00,,SKC,0.00,VWS V13.00,2013-05-16 02:13:00,
2013-05-15 22:18:00,68.5,60.3,30.00,SW,220,6.0,16.0,75,0.00,,SKC,0.00,VWS V13.00,2013-05-16 02:18:00,
2013-05-15 22:23:00,68.5,60.3,30.00,SW,234,10.0,12.0,75,0.00,,SKC,0.00,VWS V13.00,2013-05-16 02:23:00,
2013-05-15 22:29:00,68.5,60.3,30.00,SW,214,14.0,18.0,75,0.00,,SKC,0.00,VWS V13.00,2013-05-16 02:29:00,
2013-05-15 22:34:00,68.5,60.3,30.00,West,267,6.0,14.0,75,0.00,,SKC,0.00,VWS V13.00,2013-05-16 02:34:00,
2013-05-15 22:39:00,68.5,60.3,30.00,SW,227,14.0,17.0,75,0.00,,SKC,0.00,VWS V13.00,2013-05-16 02:39:00,
2013-05-15 22:44:00,68.6,60.4,30.00,South,189,5.0,15.0,75,0.00,,SKC,0.00,VWS V13.00,2013-05-16 02:44:00,
2013-05-15 22:49:00,68.6,60.4,30.00,WSW,250,10.0,19.0,75,0.00,,SKC,0.00,VWS V13.00,2013-05-16 02:49:00,
2013-05-15 22:54:00,68.6,60.4,30.00,West,276,8.0,19.0,75,0.00,,SKC,0.00,VWS V13.00,2013-05-16 02:54:00,
2013-05-15 22:59:00,68.5,60.3,29.99,SW,222,8.0,16.0,75,0.00,,SKC,0.00,VWS V13.00,2013-05-16 02:59:00,
2013-05-15 23:05:00,68.5,60.3,29.99,SSW,213,7.0,16.0,75,0.00,,SKC,0.00,VWS V13.00,2013-05-16 03:05:00,
2013-05-15 23:10:00,68.5,60.3,29.99,SW,234,7.0,17.0,75,0.00,,SKC,0.00,VWS V13.00,2013-05-16 03:10:00,
2013-05-15 23:15:00,68.5,60.3,29.99,WSW,244,5.0,16.0,75,0.00,,SKC,0.00,VWS V13.00,2013-05-16 03:15:00,
2013-05-15 23:20:00,68.5,60.3,29.99,West,263,6.0,19.0,75,0.00,,SKC,0.00,VWS V13.00,2013-05-16 03:20:00,
2013-05-15 23:26:00,68.5,60.3,29.99,SW,223,10.0,15.0,75,0.00,,SKC,0.00,VWS V13.00,2013-05-16 03:26:00,
2013-05-15 23:31:00,68.4,60.2,29.99,WSW,252,9.0,14.0,75,0.00,,SKC,0.00,VWS V13.00,2013-05-16 03:31:00,
2013-05-15 23:36:00,68.4,60.5,29.99,SW,229,9.0,15.0,76,0.00,,SKC,0.00,VWS V13.00,2013-05-16 03:36:00,
2013-05-15 23:41:00,68.4,60.5,29.99,WSW,257,5.0,17.0,76,0.00,,SKC,0.00,VWS V13.00,2013-05-16 03:41:00,
2013-05-15 23:46:00,68.4,60.5,29.99,West,280,7.0,19.0,76,0.00,,SKC,0.00,VWS V13.00,2013-05-16 03:46:00,
2013-05-15 23:51:00,68.4,60.5,29.99,SSW,197,8.0,18.0,76,0.00,,SKC,0.00,VWS V13.00,2013-05-16 03:51:00,
2013-05-15 23:56:00,68.4,60.5,29.99,SW,234,13.0,18.0,76,0.00,,SKC,0.00,VWS V13.00,2013-05-16 03:56:00,